When you browse on this site, cookies collect data to enhance your experience and personalize the content and advertising you see.
Visit our Privacy Policy to learn more. By continuing to use the site, you agree to this use of cookies and data.
  • en Suisse
  • Liste des pays
  • À 7 jours
  • Température de l'eau
  • Carte météo
  • Widgets météo
  • user-avatar
    Se connecter

    Météo par heure à Shondrovo

    Ce jour, 21 Août, Mercredi

    Heure Température Précipitation Vent Pression Humidité
    00:00 +18°C° 0 mm 0 m/s 747 mmHg 75%
    01:00 +18°C° 0 mm 0 m/s 747 mmHg 77%
    02:00 +17°C° 0 mm 0 m/s 747 mmHg 79%
    03:00 +17°C° 0 mm 0 m/s 747 mmHg 81%
    04:00 +17°C° 0 mm 0 m/s 747 mmHg 81%
    05:00 +19°C° 0 mm 1 m/s 747 mmHg 81%
    06:00 +19°C° 0 mm 1 m/s 747 mmHg 82%
    07:00 +20°C° 0 mm 1 m/s 747 mmHg 78%
    08:00 +22°C° 0 mm 1 m/s 748 mmHg 73%
    09:00 +24°C° 0 mm 1 m/s 748 mmHg 69%
    10:00 +25°C° 0 mm 1 m/s 748 mmHg 66%
    11:00 +26°C° 0 mm 1 m/s 748 mmHg 62%
    12:00 +27°C° 0 mm 1 m/s 748 mmHg 59%
    13:00 +28°C° 0 mm 1 m/s 748 mmHg 57%
    14:00 +28°C° 0 mm 1 m/s 748 mmHg 56%
    15:00 +28°C° 0 mm 1 m/s 747 mmHg 55%
    16:00 +28°C° 0 mm 1 m/s 747 mmHg 58%
    17:00 +28°C° 0 mm 1 m/s 747 mmHg 62%
    18:00 +27°C° 0 mm 1 m/s 746 mmHg 66%
    19:00 +26°C° 0 mm 1 m/s 746 mmHg 69%
    20:00 +24°C° 0 mm 1 m/s 746 mmHg 73%
    21:00 +23°C° 0 mm 2 m/s 746 mmHg 77%
    22:00 +21°C° 0 mm 2 m/s 746 mmHg 79%
    23:00 +21°C° 0 mm 2 m/s 746 mmHg 80%

    Demain, 22 Août, Jeudi

    Heure Température Précipitation Vent Pression Humidité
    00:00 +20°C° 0 mm 2 m/s 746 mmHg 82%
    01:00 +20°C° 0 mm 2 m/s 746 mmHg 83%
    02:00 +20°C° 0 mm 2 m/s 746 mmHg 85%
    03:00 +19°C° 0 mm 2 m/s 746 mmHg 87%
    04:00 +19°C° 0 mm 2 m/s 746 mmHg 88%
    05:00 +19°C° 0 mm 2 m/s 745 mmHg 88%
    06:00 +20°C° 0 mm 1 m/s 745 mmHg 89%
    07:00 +20°C° 0 mm 2 m/s 745 mmHg 83%
    08:00 +23°C° 0 mm 2 m/s 745 mmHg 78%
    09:00 +25°C° 0 mm 2 m/s 745 mmHg 72%
    10:00 +26°C° 0 mm 2 m/s 745 mmHg 68%
    11:00 +26°C° 0 mm 2 m/s 745 mmHg 64%
    12:00 +27°C° 0 mm 2 m/s 745 mmHg 60%
    13:00 +28°C° 0.1 mm 2 m/s 745 mmHg 59%
    14:00 +28°C° 0.1 mm 2 m/s 745 mmHg 58%
    15:00 +28°C° 0.1 mm 2 m/s 745 mmHg 57%
    16:00 +27°C° 0.5 mm 3 m/s 745 mmHg 64%
    17:00 +26°C° 0.5 mm 4 m/s 745 mmHg 71%
    18:00 +25°C° 0.5 mm 4 m/s 745 mmHg 77%
    19:00 +22°C° 0.5 mm 5 m/s 745 mmHg 82%
    20:00 +20°C° 0.5 mm 5 m/s 746 mmHg 87%
    21:00 +17°C° 0.5 mm 5 m/s 746 mmHg 92%
    22:00 +17°C° 0 mm 5 m/s 746 mmHg 91%
    23:00 +16°C° 0 mm 5 m/s 747 mmHg 90%

    Après-demain, 23 Août, Vendredi

    Heure Température Précipitation Vent Pression Humidité
    00:00 +15°C° 0 mm 4 m/s 747 mmHg 89%
    01:00 +15°C° 0 mm 4 m/s 747 mmHg 89%
    02:00 +14°C° 0 mm 4 m/s 748 mmHg 89%
    03:00 +14°C° 0 mm 4 m/s 748 mmHg 89%
    04:00 +13°C° 0 mm 4 m/s 748 mmHg 90%
    05:00 +13°C° 0 mm 4 m/s 748 mmHg 91%
    06:00 +12°C° 0 mm 3 m/s 748 mmHg 92%
    07:00 +14°C° 0 mm 4 m/s 748 mmHg 87%
    08:00 +15°C° 0 mm 4 m/s 749 mmHg 82%
    09:00 +17°C° 0 mm 4 m/s 749 mmHg 78%
    10:00 +18°C° 0 mm 4 m/s 749 mmHg 73%
    11:00 +19°C° 0 mm 4 m/s 749 mmHg 68%
    12:00 +21°C° 0 mm 4 m/s 749 mmHg 63%
    13:00 +21°C° 0 mm 4 m/s 749 mmHg 61%
    14:00 +21°C° 0 mm 4 m/s 749 mmHg 59%
    15:00 +22°C° 0 mm 4 m/s 749 mmHg 57%
    16:00 +21°C° 0 mm 3 m/s 749 mmHg 61%
    17:00 +21°C° 0 mm 3 m/s 749 mmHg 65%
    18:00 +20°C° 0 mm 2 m/s 749 mmHg 69%
    19:00 +19°C° 0 mm 2 m/s 749 mmHg 72%
    20:00 +17°C° 0 mm 2 m/s 749 mmHg 75%
    21:00 +16°C° 0 mm 2 m/s 749 mmHg 79%
    22:00 +15°C° 0 mm 1 m/s 749 mmHg 79%
    23:00 +15°C° 0 mm 1 m/s 749 mmHg 79%

    24 Août, Samedi

    Heure Température Précipitation Vent Pression Humidité
    00:00 +14°C° 0 mm 1 m/s 749 mmHg 80%
    01:00 +14°C° 0 mm 1 m/s 749 mmHg 80%
    02:00 +13°C° 0 mm 1 m/s 749 mmHg 80%
    03:00 +13°C° 0 mm 1 m/s 749 mmHg 80%
    04:00 +13°C° 0 mm 1 m/s 749 mmHg 80%
    05:00 +13°C° 0 mm 1 m/s 749 mmHg 81%
    06:00 +13°C° 0 mm 1 m/s 749 mmHg 81%
    07:00 +15°C° 0 mm 1 m/s 750 mmHg 76%
    08:00 +16°C° 0 mm 1 m/s 750 mmHg 71%
    09:00 +19°C° 0 mm 1 m/s 750 mmHg 66%
    10:00 +21°C° 0 mm 1 m/s 750 mmHg 62%
    11:00 +22°C° 0 mm 1 m/s 750 mmHg 57%
    12:00 +23°C° 0 mm 1 m/s 750 mmHg 53%
    13:00 +23°C° 0 mm 1 m/s 749 mmHg 51%
    14:00 +24°C° 0 mm 1 m/s 749 mmHg 49%
    15:00 +24°C° 0 mm 1 m/s 749 mmHg 47%
    16:00 +24°C° 0 mm 1 m/s 748 mmHg 50%
    17:00 +23°C° 0 mm 1 m/s 748 mmHg 54%
    18:00 +23°C° 0 mm 1 m/s 748 mmHg 58%
    19:00 +21°C° 0 mm 1 m/s 748 mmHg 62%
    20:00 +20°C° 0 mm 1 m/s 748 mmHg 65%
    21:00 +18°C° 0 mm 1 m/s 748 mmHg 69%
    22:00 +16°C° 0 mm 1 m/s 748 mmHg 70%
    23:00 +16°C° 0 mm 1 m/s 748 mmHg 72%

    25 Août, Dimanche

    Heure Température Précipitation Vent Pression Humidité
    00:00 +15°C° 0 mm 1 m/s 747 mmHg 74%
    01:00 +15°C° 0 mm 2 m/s 747 mmHg 75%
    02:00 +15°C° 0 mm 2 m/s 747 mmHg 77%
    03:00 +14°C° 0 mm 2 m/s 747 mmHg 78%
    04:00 +14°C° 0 mm 2 m/s 747 mmHg 80%
    05:00 +14°C° 0 mm 2 m/s 747 mmHg 82%
    06:00 +14°C° 0 mm 2 m/s 746 mmHg 84%
    07:00 +15°C° 0 mm 2 m/s 746 mmHg 80%
    08:00 +17°C° 0 mm 2 m/s 746 mmHg 76%
    09:00 +19°C° 0 mm 3 m/s 746 mmHg 73%
    10:00 +20°C° 0 mm 3 m/s 746 mmHg 68%
    11:00 +21°C° 0 mm 3 m/s 746 mmHg 64%
    12:00 +22°C° 0 mm 3 m/s 746 mmHg 60%
    13:00 +23°C° 0 mm 4 m/s 746 mmHg 60%
    14:00 +23°C° 0 mm 4 m/s 746 mmHg 59%
    15:00 +23°C° 0 mm 4 m/s 746 mmHg 59%
    16:00 +22°C° 0.4 mm 4 m/s 745 mmHg 65%
    17:00 +21°C° 0.4 mm 4 m/s 745 mmHg 72%
    18:00 +20°C° 0.4 mm 4 m/s 745 mmHg 78%
    19:00 +19°C° 0.1 mm 3 m/s 746 mmHg 82%
    20:00 +17°C° 0.1 mm 3 m/s 746 mmHg 86%
    21:00 +16°C° 0.1 mm 3 m/s 746 mmHg 91%
    22:00 +14°C° 0 mm 3 m/s 747 mmHg 90%
    23:00 +13°C° 0 mm 3 m/s 747 mmHg 89%

    26 Août, Lundi

    Heure Température Précipitation Vent Pression Humidité
    00:00 +13°C° 0 mm 3 m/s 748 mmHg 88%
    01:00 +12°C° 0 mm 3 m/s 748 mmHg 89%
    02:00 +11°C° 0 mm 3 m/s 748 mmHg 91%
    03:00 +11°C° 0 mm 3 m/s 749 mmHg 92%
    04:00 +10°C° 0 mm 3 m/s 749 mmHg 93%
    05:00 +10°C° 0 mm 2 m/s 749 mmHg 93%
    06:00 +10°C° 0 mm 2 m/s 749 mmHg 94%
    07:00 +11°C° 0 mm 3 m/s 750 mmHg 89%
    08:00 +13°C° 0 mm 3 m/s 750 mmHg 83%
    09:00 +14°C° 0 mm 3 m/s 751 mmHg 78%
    10:00 +16°C° 0 mm 3 m/s 751 mmHg 72%
    11:00 +17°C° 0 mm 3 m/s 751 mmHg 65%
    12:00 +18°C° 0 mm 3 m/s 751 mmHg 59%
    13:00 +19°C° 0 mm 3 m/s 751 mmHg 57%
    14:00 +19°C° 0 mm 3 m/s 751 mmHg 54%
    15:00 +20°C° 0 mm 2 m/s 751 mmHg 51%
    16:00 +19°C° 0 mm 2 m/s 750 mmHg 55%
    17:00 +19°C° 0 mm 2 m/s 750 mmHg 59%
    18:00 +19°C° 0 mm 1 m/s 750 mmHg 62%
    19:00 +18°C° 0 mm 1 m/s 750 mmHg 66%
    20:00 +15°C° 0 mm 1 m/s 750 mmHg 70%
    21:00 +13°C° 0 mm 1 m/s 750 mmHg 74%
    22:00 +13°C° 0 mm 1 m/s 750 mmHg 75%
    23:00 +12°C° 0 mm 1 m/s 751 mmHg 76%
    Voir plus